Flag for Poland Weather past 2 weeks in Słupsk, Poland

Now
57 °F

Overcast.


Feels Like: 57 °F
Forecast: 53 / 65 °F
Wind: 2 mph from Southeast

Location: Leba

Current Time: Oct 1, 2014 at 9:33:38 PM

Latest Report: Oct 1, 2014 at 8:00 PM


Visibility: 13 mi

Pressure: 30.36 "Hg

Humidity: 79%

Dew point: 50 °F

Location of SłupskLocation

Historic Weather in Słupsk — Graph

°F

Słupsk temperature yesterday

Maximum temperature yesterday: 60 °F (at 4:00 PM)
Minimum temperature yesterday: 47 °F (at 12:00 AM)
Average temperature yesterday: 54 °F

Past Weeks' High & Low Weather Summary

 TemperatureHumidityPressure
High74 °F (Sep 19, 3:00 PM)98% (Sep 21, 7:00 AM)30.37 "Hg (Sep 21, 7:00 AM)
Low40 °F (Sep 24, 2:00 AM)35% (Sep 18, 3:00 PM)29.58 "Hg (Sep 22, 6:00 AM)
Average56 °F79%30.04 "Hg
* Reported Sep 16 8:00 PM — Oct 1 8:00 PM, Słupsk, Weather by CustomWeather, © 2014

Note: Actual official high and low records may vary slightly from our data, if they occured in-between our weather recording intervals... More about our weather records

Advertising

Słupsk weather history for previous 24 hours

 ConditionsComfort  
Time TempWeatherWind HumidityBarometerVisibility
8:00 PM
Oct 1
57 °FOvercast.2 mph79%30.36 "Hg12 mi
7:00 PM57 °FOvercast.3 mph77%30.36 "Hg12 mi
6:00 PM58 °FOvercast.3 mph74%30.35 "Hg12 mi
5:00 PM60 °FOvercast.5 mph71%30.34 "Hg12 mi
4:00 PM62 °FOvercast.6 mph68%30.34 "Hg12 mi
3:00 PM62 °FOvercast.5 mph69%30.35 "Hg12 mi
2:00 PM61 °FOvercast.6 mph67%30.36 "Hg12 mi
1:00 PM60 °FOvercast.6 mph67%30.36 "Hg12 mi
12:00 PM59 °FOvercast.5 mph68%30.37 "Hg12 mi
11:00 AM57 °FOvercast.5 mph71%30.37 "Hg12 mi
10:00 AM55 °FOvercast.5 mph82%30.37 "Hg12 mi
9:00 AM54 °FOvercast.5 mph85%30.36 "Hg12 mi
8:00 AM53 °FPassing clouds.28 mph86%30.35 "Hg2 mi
7:00 AM53 °FOvercast.3 mph89%30.35 "Hg12 mi
6:00 AM52 °FOvercast.3 mph88%30.35 "Hg12 mi
5:00 AM53 °FPassing clouds.25 mph89%30.35 "Hg9 mi
4:00 AM53 °FPassing clouds.3 mph87%30.35 "Hg12 mi
3:00 AM53 °FOvercast.3 mph85%30.35 "Hg12 mi
2:00 AM53 °FOvercast.3 mph85%30.34 "Hg12 mi
1:00 AM54 °FOvercast.3 mph84%30.34 "Hg12 mi
12:00 AM54 °FOvercast.3 mph81%30.34 "Hg12 mi
11:00 PM
Sep 30
55 °FOvercast.5 mph78%30.33 "Hg12 mi
10:00 PM55 °FOvercast.5 mph80%30.33 "Hg12 mi
9:00 PM55 °FOvercast.5 mph78%30.32 "Hg12 mi
Weather by CustomWeather, © 2014

See weather overviewHow to use our weather pages